User: anonymous   Login
Location: Anjeux
(47.8815°N, 6.2076°E)
Time: 15:49:48
(UTC+00:00)
Language:

SPROUT - Orbit

View from above orbital plane
View from above orbital plane
View from above satellite
View from above satellite

Ground track
Ground track

The orbit data is extracted from the following two-line orbital elements,

1 39770U 14029E   21332.01391624  .00001437  00000-0  15890-3 0  9990
2 39770  97.9292  83.3114 0009458  35.8584 324.3303 14.88934308407675
Epoch (UTC): 28 November 2021 00:20:02
Eccentricity: 0.0009458
inclination: 97.9292°
perigee height: 594 km
apogee height: 608 km
right ascension of ascending node: 83.3114°
argument of perigee: 35.8584°
revolutions per day: 14.88934308
mean anomaly at epoch: 324.3303°
orbit number at epoch: 40767

The dashed part of the orbit path shows where the satellite is in the earth's shadow,  

DLR